Total_Precipitation_Accumulation
1.39 1.41 1.39 1.36 1.25 1.24 1.26 1.23 1.19 1.17 1.21 1.18 1.10 1.04 1.11 1.08 1.02 1.09 1.15 1.21 1.30 1.47 1.61 1.74 1.91 2.16 2.46 2.51 2.48 2.38 2.32 2.20 1.96 1.75 1.55 1.43 1.70 1.79 1.72 1.61 1.58 1.54 1.31
1.31 1.34 1.33 1.21 1.12 1.10 1.09 1.01 0.89 0.84 0.84 0.94 1.05 1.00 0.98 0.99 0.99 1.05 1.06 1.10 1.17 1.29 1.40 1.53 1.72 2.00 2.34 2.55 2.65 2.54 2.41 2.30 2.16 2.00 1.68 1.41 1.50 1.81 1.93 1.87 1.68 1.53 1.38
1.31 1.20 1.09 1.03 1.00 1.01 0.94 0.88 0.83 0.72 0.68 0.71 0.80 0.79 0.88 0.97 0.99 1.02 1.03 1.06 1.11 1.21 1.36 1.43 1.48 1.68 1.88 2.08 2.27 2.41 2.38 2.36 2.34 2.11 1.82 1.55 1.47 1.61 1.84 1.84 1.77 1.77 1.53
1.38 1.29 1.15 1.05 1.01 0.97 0.92 0.88 0.82 0.77 0.77 0.79 0.88 0.91 0.86 0.85 0.90 0.99 1.04 1.02 1.01 1.04 1.12 1.22 1.32 1.38 1.55 1.68 1.79 2.01 2.22 2.46 2.52 2.37 2.10 1.78 1.66 1.54 1.62 1.80 1.87 1.82 1.73
1.39 1.38 1.24 1.17 1.10 0.97 0.89 0.89 0.87 0.89 0.85 0.84 0.92 1.01 1.05 1.01 0.98 1.03 1.00 1.00 1.03 1.00 1.04 1.03 1.11 1.16 1.24 1.41 1.44 1.67 1.99 2.27 2.37 2.45 2.31 2.00 1.74 1.58 1.36 1.47 1.73 1.95 1.94
1.07 1.16 1.13 1.04 0.92 0.88 0.88 0.83 0.79 0.78 0.75 0.71 0.73 0.78 0.86 0.93 1.19 1.11 0.91 0.86 0.92 0.98 1.02 1.02 1.05 1.00 0.99 1.07 1.20 1.31 1.59 1.82 1.96 2.04 2.06 1.89 1.69 1.56 1.52 1.48 1.56 1.70 1.76
0.81 0.93 0.92 0.87 0.77 0.75 0.77 0.73 0.68 0.62 0.62 0.60 0.60 0.57 0.61 0.79 0.92 0.75 0.71 0.72 0.85 0.97 1.05 1.10 1.07 1.00 1.03 1.04 1.07 1.08 1.13 1.32 1.53 1.73 1.76 1.65 1.72 1.63 1.57 1.47 1.49 1.49 1.49
0.56 0.63 0.66 0.66 0.64 0.64 0.64 0.62 0.63 0.58 0.54 0.52 0.57 0.63 0.64 0.69 0.78 0.64 0.60 0.66 0.86 0.99 1.00 0.97 1.06 1.09 1.12 1.17 1.10 1.14 1.07 1.05 1.15 1.18 1.32 1.54 1.70 1.87 1.85 1.75 1.76 1.68 1.60
0.37 0.42 0.47 0.49 0.53 0.57 0.58 0.59 0.68 0.66 0.61 0.58 0.68 0.74 0.69 0.65 0.72 0.67 0.69 0.79 0.92 1.01 0.97 0.99 1.08 1.13 1.29 1.34 1.23 1.28 1.22 1.18 1.17 1.27 1.36 1.48 1.60 1.70 1.84 1.87 1.83 1.80 1.68
0.32 0.35 0.39 0.41 0.44 0.50 0.57 0.57 0.55 0.53 0.56 0.61 0.63 0.58 0.58 0.66 0.78 0.73 0.79 0.92 1.04 1.15 1.12 1.13 1.35 1.31 1.31 1.24 1.18 1.33 1.29 1.15 1.08 1.12 1.18 1.27 1.32 1.43 1.57 1.60 1.73 1.83 1.74
0.36 0.38 0.39 0.40 0.42 0.45 0.44 0.40 0.41 0.46 0.44 0.42 0.43 0.47 0.51 0.66 0.73 0.77 0.94 0.99 1.06 1.21 1.23 1.20 1.17 1.34 1.27 1.18 1.14 1.17 1.31 1.20 1.13 1.16 1.15 1.15 1.17 1.22 1.28 1.35 1.48 1.63 1.72
0.32 0.33 0.32 0.32 0.33 0.36 0.38 0.35 0.34 0.39 0.41 0.41 0.43 0.46 0.50 0.55 0.60 0.67 0.81 0.93 1.00 1.16 1.25 1.13 1.04 1.29 1.25 1.16 1.06 1.06 1.21 1.29 1.27 1.32 1.31 1.22 1.13 1.10 1.09 1.15 1.24 1.37 1.49
0.28 0.26 0.28 0.27 0.29 0.29 0.31 0.35 0.38 0.38 0.39 0.39 0.42 0.47 0.54 0.55 0.55 0.64 0.69 0.76 0.90 1.08 1.17 1.18 1.15 1.19 1.11 1.05 1.13 1.15 1.17 1.19 1.28 1.32 1.22 1.09 1.03 1.03 1.10 1.21 1.31 1.39 1.47
0.26 0.25 0.25 0.26 0.26 0.25 0.28 0.31 0.33 0.35 0.36 0.38 0.43 0.48 0.51 0.55 0.57 0.67 0.77 0.79 0.88 0.95 0.97 1.01 1.01 0.99 0.98 0.99 1.04 1.12 1.17 1.22 1.25 1.19 1.08 0.96 0.97 1.05 1.09 1.14 1.30 1.43 1.56
0.25 0.25 0.23 0.26 0.27 0.25 0.23 0.26 0.30 0.34 0.41 0.46 0.48 0.50 0.50 0.50 0.56 0.69 0.82 0.91 1.04 1.17 1.18 1.04 0.98 0.95 0.93 0.91 0.95 1.00 1.06 1.07 1.09 1.07 1.04 1.02 1.00 1.02 1.04 1.04 1.16 1.25 1.27
0.26 0.25 0.24 0.22 0.23 0.24 0.26 0.24 0.27 0.32 0.41 0.47 0.50 0.50 0.51 0.56 0.57 0.56 0.64 0.80 1.00 1.30 1.55 1.47 1.39 1.26 1.14 1.03 0.97 0.93 0.91 0.93 0.96 1.01 1.02 1.01 1.02 1.07 1.11 1.11 1.14 1.20 1.20
0.23 0.24 0.23 0.22 0.22 0.22 0.24 0.28 0.30 0.29 0.28 0.31 0.36 0.43 0.49 0.55 0.54 0.57 0.61 0.64 0.78 1.11 1.47 1.48 1.45 1.27 1.12 1.03 0.93 0.83 0.79 0.81 0.90 0.91 0.94 0.98 0.99 1.04 1.09 1.09 1.09 1.13 1.17
0.25 0.24 0.24 0.25 0.25 0.27 0.27 0.31 0.41 0.47 0.42 0.32 0.33 0.36 0.45 0.53 0.59 0.69 0.79 0.83 0.86 0.98 1.09 1.12 1.07 1.02 0.94 0.81 0.75 0.74 0.71 0.76 0.86 0.89 0.90 0.91 0.94 1.00 1.03 1.07 1.08 1.09 1.15
0.25 0.27 0.29 0.33 0.30 0.31 0.33 0.38 0.42 0.36 0.34 0.35 0.34 0.34 0.41 0.47 0.55 0.63 0.71 0.73 0.71 0.74 0.75 0.73 0.68 0.68 0.68 0.64 0.62 0.61 0.64 0.69 0.76 0.85 0.89 0.88 0.88 0.94 0.99 1.04 1.11 1.20 1.19
0.21 0.29 0.33 0.39 0.36 0.31 0.36 0.37 0.34 0.33 0.37 0.39 0.36 0.35 0.40 0.42 0.45 0.53 0.59 0.60 0.56 0.54 0.53 0.54 0.53 0.53 0.56 0.57 0.60 0.62 0.63 0.66 0.72 0.79 0.84 0.90 0.91 0.91 0.94 1.01 1.07 1.13 1.13
0.22 0.26 0.31 0.36 0.38 0.34 0.38 0.39 0.35 0.33 0.37 0.40 0.41 0.42 0.45 0.45 0.46 0.48 0.50 0.50 0.52 0.54 0.53 0.53 0.52 0.54 0.56 0.56 0.61 0.66 0.70 0.73 0.75 0.82 0.85 0.89 0.95 0.98 0.98 1.01 1.04 1.05 1.08
0.23 0.26 0.27 0.31 0.33 0.34 0.34 0.37 0.38 0.35 0.34 0.36 0.39 0.43 0.46 0.44 0.42 0.42 0.43 0.45 0.46 0.50 0.56 0.60 0.61 0.60 0.59 0.61 0.65 0.70 0.72 0.74 0.77 0.82 0.88 0.91 0.93 0.96 0.99 1.01 1.05 1.06 1.06
0.23 0.26 0.26 0.27 0.29 0.31 0.30 0.30 0.35 0.36 0.35 0.36 0.39 0.40 0.42 0.42 0.42 0.44 0.45 0.46 0.51 0.53 0.53 0.56 0.61 0.62 0.60 0.60 0.63 0.70 0.76 0.78 0.81 0.87 0.95 0.97 0.94 0.95 0.98 0.97 0.99 1.04 1.06
0.26 0.27 0.29 0.30 0.31 0.31 0.30 0.31 0.33 0.32 0.35 0.39 0.39 0.38 0.42 0.47 0.48 0.45 0.45 0.51 0.54 0.54 0.53 0.53 0.55 0.58 0.60 0.62 0.64 0.67 0.70 0.76 0.82 0.88 0.95 1.01 1.00 0.97 0.99 1.04 1.05 1.06 1.12
0.28 0.31 0.32 0.34 0.35 0.35 0.35 0.36 0.36 0.35 0.37 0.40 0.38 0.38 0.39 0.43 0.48 0.47 0.48 0.53 0.55 0.53 0.53 0.54 0.54 0.56 0.58 0.61 0.65 0.67 0.76 0.82 0.84 0.87 0.93 1.02 1.04 1.03 1.03 1.09 1.15 1.18 1.23
0.32 0.34 0.36 0.37 0.38 0.39 0.39 0.39 0.39 0.39 0.39 0.38 0.37 0.39 0.42 0.46 0.50 0.53 0.55 0.58 0.59 0.58 0.56 0.57 0.57 0.58 0.58 0.59 0.65 0.75 0.80 0.76 0.78 0.86 0.92 1.03 1.12 1.12 1.12 1.14 1.15 1.20 1.25